• MPC Preparation (Info)

  • MPEC 2013-J36 : 2013 JL14

    The following Minor Planet Electronic Circular may be linked-to from your own Web pages, but must not otherwise be redistributed electronically.

    A form allowing access to any MPEC is at the bottom of this page.


    Read MPEC 2013-J35 Read MPEC 2013-J37


    M.P.E.C. 2013-J36                                Issued 2013 May 10, 21:13 UT
    
         The Minor Planet Electronic Circulars contain information on unusual
             minor planets and routine data on comets.  They are published
       on behalf of Commission 20 of the International Astronomical Union by the
              Minor Planet Center, Smithsonian Astrophysical Observatory,
                              Cambridge, MA 02138, U.S.A.
    
                 Prepared using the Tamkin Foundation Computer Network
    
                                  MPC@CFA.HARVARD.EDU
                URL https://www.minorplanetcenter.net/    ISSN 1523-6714
    
                                       2013 JL14
    
    Observations:
         K13J14L* C2013 05 08.44068 16 13 44.687-14 23 09.76         19.8 wLEJ036F51
         K13J14L  C2013 05 08.45476 16 13 41.186-14 19 57.63         19.9 wLEJ036F51
         K13J14L  C2013 05 08.46885 16 13 37.658-14 16 44.63         19.9 wLEJ036F51
         K13J14L KC2013 05 08.98735 16 11 50.89 -12 12 16.8                qEJ036J95
         K13J14L KC2013 05 08.99663 16 11 48.61 -12 09 55.5                qEJ036J95
         K13J14L KC2013 05 09.00538 16 11 46.36 -12 07 41.5          19.8 RqEJ036J95
         K13J14L 2C2013 05 09.60763316 09 17.709-09 22 52.38         19.2 RtEJ036568
         K13J14L 2C2013 05 09.60890016 09 17.347-09 22 30.17         19.2 RtEJ036568
         K13J14L 2C2013 05 09.61016316 09 16.986-09 22 08.05         19.2 RtEJ036568
    
    Observer details:
    568 Mauna Kea.  Observer L. Wells.  Measurers D. J. Tholen, R. J. Wainscoat,
        M. Micheli.  3.6-m Canada-France-Hawaii Telescope.
    F51 Pan-STARRS 1, Haleakala.  Observers N. Primak, A. Schultz, S. Watters,
        T. Goggia.  Measurer PS1 Science Consortium.  1.8-m Ritchey-Chretien
        + CCD.
    J95 Great Shefford.  Observer P. Birtwhistle.  0.40-m f/6.0 Schmidt-Cassegrain
        + CCD.
    
    Orbital elements:
    2013 JL14                                                Earth MOID = 0.0375 AU
    Epoch 2013 Apr. 18.0 TT = JDT 2456400.5                 MPC
    M 246.26874              (2000.0)            P               Q
    n   1.11853112     Peri.  136.47261     +0.98157520     -0.04665695
    a   0.9191167      Node   227.19122     +0.00335912     +0.97379371
    e   0.4273557      Incl.   14.62968     +0.19104671     +0.22259590
    P   0.88           H   24.6           G   0.15           U   8
    Residuals in seconds of arc
    130508 F51  0.1-  0.0     130508 J95  0.5-  0.0     130509 568  0.0   0.1-
    130508 F51  0.0   0.0     130508 J95  0.5+  0.1-    130509 568  0.0   0.0
    130508 F51  0.1+  0.1-    130509 J95  0.1+  0.2+    130509 568  0.0   0.0
    
    Ephemeris:
    2013 JL14                a,e,i = 0.92, 0.43, 15                  q = 0.5263
    Date    TT    R. A. (2000) Decl.     Delta      r     Elong.  Phase     V
    2013 04 10    16 24 07.8 -38 29 43   0.3085  1.2147   127.5    40.9    24.1
    ...
    2013 04 25    16 30 11.2 -34 36 54   0.1753  1.1487   141.7    32.9    22.5
    ...
    2013 05 03    16 25 16.3 -27 24 54   0.1092  1.1064   153.0    24.5    21.1
    ...
    2013 05 09    16 11 46.1 -12 07 15   0.06462 1.0714   162.7    16.2    19.7
    2013 05 10    16 07 44.3 -07 23 40   0.05820 1.0653   162.1    16.9    19.5
    2013 05 11    16 02 49.2 -01 33 29   0.05232 1.0591   159.4    19.6    19.3
    ...
    2013 05 17    14 41 09.8 +58 06 55   0.04089 1.0204   101.8    75.9    20.4
    ...
    2013 05 25    06 33 28.1 +70 51 25   0.08703 0.9647    54.3   121.5    24.2
    ...
    2013 06 09    05 14 26.4 +55 22 15   0.2061  0.8485    32.5   140.0    27.7
    
    A. U. Tomatic                (C) Copyright 2013 MPC           M.P.E.C. 2013-J36
    

    Read MPEC 2013-J35 Read MPEC 2013-J37


    MPEC number:

    Enter an MPEC number in one of the following forms:

    • 1997-B01 (the full form)
    • J97B01 (the packed version of the full form)
    • B01 (the abbreviated form)